{"data":{"norad_id":63947,"intl_designator":"2025-098X","name":"STARLINK-34034","alt_names":[],"object_type":"PAYLOAD","status":"ACTIVE","operator":null,"country":"US","launch_date":"2025-05-13","launch_site_code":"AFWTR","launch_vehicle":null,"mission":null,"orbit_class":"UNKNOWN","rcs_meters":null,"size_class":null,"mass_kg":null,"dimensions":null,"purposes":["comms"],"wikipedia_slug":null,"has_3d_model":false,"image_url":null,"decayed_at":null,"tle_current":{"epoch":"2026-05-25T03:41:37.296960Z","epoch_age_seconds":51974,"freshness":"FRESH","line1":"1 63947U 25098X   26145.15390390  .00006305  00000+0  53550-3 0  9995","line2":"2 63947  70.0010  81.7613 0002591 268.4234  91.6628 14.98347375 58007","mean_motion":14.98347375,"eccentricity":0.0002591,"inclination_deg":70.001,"raan_deg":81.7613,"arg_perigee_deg":268.4234,"mean_anomaly_deg":91.6628,"bstar":0.0005355,"rev_number":5800,"period_min":96.105884658422,"perigee_km":570.20137965287,"apogee_km":573.80294176595,"semimajor_km":6950.1391607094,"source":"CELESTRAK","updated_at":"2026-05-25T13:38:20.187946Z"}}}